Find Starlink 31459

NORAD ID: 59233 Int'l Des: 2024-049 Owner: SPXS Country: US Constellation: starlink operational
LEOCIRCULAR

实时位置

正在加载3D地球...

关于 Starlink 31459

正在加载描述...

即将过境

Passes for default location (London). Set your location on the main map for personalized predictions.

高度历史

Loading altitude history...

两行轨道根数

1 59233U 24049C 26132.75249487 .00000142 00000-0 14699-4 0 9991
2 59233 43.0034 141.7451 0001434 268.6730 91.3958 15.27574657122194
Epoch: May 12, 2026 • Age: 10 hours

当前状态

高度 484.1 km
速度 7.62 km/s
星下点 -8.24°S, 32.59°E
发射日期 Mar 16, 2024
运行时间 2.1 years
类型 internet

技术详情

分类 Payload
质量 730.00 kg
干质量 700.00 kg
总质量 730.00 kg
长度 0.30 m
直径 4.10 m
跨度 29.00 m
形状 Box + pan
制造商 SPXS
平台类型 Starlink V2M
阶段状态 In Orbit
所有者/国家 SPXS/US

Most Searched